Trinity Center, CA

7:54 AM PDT on April 25, 2017 (GMT -0700)
Trinity Center

Weather History for KO86 - March, 2014

Change the Weather History Date:

Monday, March 31, 2014

  Actual Average (KMHS) Record (KMHS)
Temperature  
Mean Temperature 36 °F -  
Max Temperature 39 °F 52 °F 80 °F (1966)
Min Temperature 32 °F 31 °F 11 °F (1929)
Degree Days  
Heating Degree Days 30    
Moisture  
Dew Point 33 °F    
Average Humidity 94    
Maximum Humidity 100    
Minimum Humidity 75    
Precipitation  
Precipitation 0.49 in - - ()
Sea Level Pressure  
Sea Level Pressure 29.84 in    
Wind  
Wind Speed 1 mph (West)    
Max Wind Speed 8 mph    
Max Gust Speed -    
Visibility 7 miles    
Events      
Averages and records for this station are not official NWS values.
T = Trace of Precipitation, MM = Missing Value Source: NWS Daily Summary

Daily Weather History Graph

Daily Weather History Graph

Search for Another Location

Airport or City:

Trip Planner

Search our weather history database for the weather conditions in past years. The results will help you decide how hot, cold, wet, or windy it might be!

Date:

Astronomy

Mar. 31, 2014 Rise Set
Actual Time 6:55 AM PDT 7:34 PM PDT
Civil Twilight 6:27 AM PDT 8:02 PM PDT
Nautical Twilight 5:55 AM PDT 8:35 PM PDT
Astronomical Twilight 5:21 AM PDT 9:09 PM PDT
Moon 7:22 AM PDT (3/31) 9:00 PM PDT (3/31)
Length of Visible Light 13h 34m
Length of Day
12h 39m
New Moon, 1% of the Moon is Illuminated
Mar 31
New Moon
Apr 7
First Quarter
Apr 15
Full
Apr 22
Last Quarter
Apr 28
New

Hourly Weather History & Observations

Time (PDT) Temp. Windchill Dew Point Humidity Pressure Visibility Wind Dir Wind Speed Gust Speed Precip Events Conditions
12:15 AM 35.6 °F - 32.0 °F 87% 30.00 in 10.0 mi Calm Calm - N/A   Clear
12:35 AM 35.6 °F 32.8 °F 32.0 °F 87% 29.99 in 10.0 mi West 3.5 mph - N/A   Clear
12:55 AM 33.8 °F 30.8 °F 32.0 °F 93% 29.99 in 10.0 mi WSW 3.5 mph - N/A   Clear
1:15 AM 33.8 °F - 32.0 °F 93% 29.99 in 10.0 mi Calm Calm - N/A   Clear
1:35 AM 32.0 °F 28.7 °F 32.0 °F 100% 29.98 in 10.0 mi West 3.5 mph - N/A   Clear
1:55 AM 32.0 °F - 32.0 °F 100% 29.98 in 10.0 mi Calm Calm - N/A   Scattered Clouds
2:15 AM 32.0 °F 28.7 °F 32.0 °F 100% 29.98 in 10.0 mi West 3.5 mph - N/A   Overcast
2:35 AM 33.8 °F - 32.0 °F 93% 29.98 in 10.0 mi Calm Calm - N/A   Overcast
2:55 AM 35.6 °F 32.8 °F 32.0 °F 87% 29.97 in 10.0 mi West 3.5 mph - N/A   Overcast
3:15 AM 35.6 °F - 32.0 °F 87% 29.96 in 10.0 mi Calm Calm - N/A   Overcast
3:35 AM 35.6 °F - 32.0 °F 87% 29.95 in 10.0 mi Calm Calm - N/A   Overcast
3:55 AM 35.6 °F - 32.0 °F 87% 29.94 in 10.0 mi Calm Calm - N/A   Overcast
4:15 AM 35.6 °F - 33.8 °F 93% 29.94 in 10.0 mi Calm Calm - N/A   Overcast
4:35 AM 35.6 °F 32.8 °F 32.0 °F 87% 29.93 in 10.0 mi West 3.5 mph - N/A   Overcast
4:55 AM 35.6 °F 32.8 °F 33.8 °F 93% 29.93 in 10.0 mi West 3.5 mph - N/A   Overcast
5:15 AM 35.6 °F - 33.8 °F 93% 29.92 in 10.0 mi Calm Calm - N/A   Overcast
5:35 AM 35.6 °F - 33.8 °F 93% 29.91 in 10.0 mi Calm Calm - N/A   Overcast
5:55 AM 35.6 °F 32.8 °F 33.8 °F 93% 29.90 in 10.0 mi WNW 3.5 mph - N/A   Overcast
6:15 AM 35.6 °F - 35.6 °F 100% 29.90 in 8.0 mi Calm Calm - N/A   Overcast
6:35 AM 35.6 °F 32.8 °F 35.6 °F 100% 29.90 in 10.0 mi South 3.5 mph - N/A   Mostly Cloudy
6:55 AM 35.6 °F - 35.6 °F 100% 29.89 in 5.0 mi Calm Calm - N/A   Mostly Cloudy
7:15 AM 37.4 °F - 35.6 °F 93% 29.89 in 10.0 mi Calm Calm - N/A   Overcast
7:35 AM 37.4 °F - 35.6 °F 93% 29.89 in 10.0 mi Calm Calm - N/A   Overcast
7:55 AM 37.4 °F - 35.6 °F 93% 29.89 in 10.0 mi Calm Calm - N/A   Overcast
8:15 AM 37.4 °F - 37.4 °F 100% 29.88 in 10.0 mi Calm Calm - N/A   Overcast
8:35 AM 37.4 °F - 37.4 °F 100% 29.88 in 10.0 mi Calm Calm - N/A   Overcast
8:55 AM 39.2 °F - 37.4 °F 93% 29.88 in 10.0 mi Calm Calm - N/A   Overcast
9:15 AM 39.2 °F 33.6 °F 32.0 °F 75% 29.87 in 10.0 mi South 8.1 mph - N/A   Overcast
9:35 AM 39.2 °F 35.9 °F 33.8 °F 81% 29.87 in 9.0 mi SW 4.6 mph - N/A   Overcast
9:55 AM 37.4 °F 33.8 °F 33.8 °F 87% 29.86 in 7.0 mi WSW 4.6 mph - N/A   Mostly Cloudy
10:15 AM 37.4 °F - 35.6 °F 93% 29.86 in 7.0 mi Calm Calm - 0.01 in   Clear
10:35 AM 37.4 °F - 35.6 °F 93% 29.86 in 5.0 mi Calm Calm - 0.02 in   Scattered Clouds
10:50 AM 37.4 °F 33.8 °F 35.6 °F 93% 29.85 in 5.0 mi WNW 4.6 mph - 0.02 in   Mostly Cloudy
11:15 AM 37.4 °F 34.9 °F 35.6 °F 93% 29.85 in 4.0 mi West 3.5 mph - 0.01 in   Scattered Clouds
11:35 AM 37.4 °F 34.9 °F 35.6 °F 93% 29.85 in 4.0 mi West 3.5 mph - 0.03 in   Partly Cloudy
11:55 AM 35.6 °F 32.8 °F 35.6 °F 100% 29.84 in 4.0 mi WNW 3.5 mph - 0.06 in   Partly Cloudy
12:15 PM 35.6 °F 32.8 °F 35.6 °F 100% 29.84 in 3.0 mi NW 3.5 mph - 0.03 in   Partly Cloudy
12:35 PM 35.6 °F - 33.8 °F 93% 29.83 in 5.0 mi Calm Calm - 0.05 in   Clear
12:55 PM 35.6 °F 32.8 °F 33.8 °F 93% 29.82 in 3.0 mi NW 3.5 mph - 0.08 in   Clear
1:15 PM 35.6 °F 32.8 °F 32.0 °F 87% 29.81 in 4.0 mi NW 3.5 mph - 0.02 in   Partly Cloudy
1:35 PM 35.6 °F - 33.8 °F 93% 29.80 in 3.0 mi Calm Calm - 0.03 in   Clear
1:55 PM 35.6 °F - 33.8 °F 93% 29.79 in 5.0 mi Calm Calm - 0.05 in   Clear
2:15 PM 35.6 °F 32.8 °F 33.8 °F 93% 29.79 in 3.0 mi NW 3.5 mph - 0.02 in   Clear
2:35 PM 35.6 °F 32.8 °F 33.8 °F 93% 29.78 in 4.0 mi NW 3.5 mph - 0.04 in   Clear
2:55 PM 35.6 °F 32.8 °F 33.8 °F 93% 29.77 in 3.0 mi NW 3.5 mph - 0.07 in   Clear
3:15 PM 33.8 °F - 32.0 °F 93% 29.76 in 2.0 mi Calm Calm - 0.03 in   Scattered Clouds
3:35 PM 32.0 °F - 32.0 °F 100% 29.76 in 1.0 mi Calm Calm - 0.07 in   Mostly Cloudy
3:55 PM 32.0 °F - 32.0 °F 100% 29.75 in 1.2 mi Calm Calm - 0.10 in   Mostly Cloudy
4:15 PM 32.0 °F - 32.0 °F 100% 29.75 in 3.0 mi Calm Calm - 0.01 in   Partly Cloudy
4:35 PM 32.0 °F - 32.0 °F 100% 29.75 in 2.5 mi Calm Calm - 0.02 in   Clear
4:55 PM 32.0 °F - 32.0 °F 100% 29.75 in 1.5 mi Calm Calm - 0.06 in   Unknown
5:15 PM 32.0 °F - 32.0 °F 100% 29.75 in 0.8 mi Calm Calm - 0.01 in   Mostly Cloudy
5:35 PM 32.0 °F - 32.0 °F 100% 29.75 in 0.8 mi Calm Calm - 0.02 in   Overcast
5:55 PM 32.0 °F - 32.0 °F 100% 29.75 in 4.0 mi Calm Calm - 0.04 in   Mostly Cloudy
6:15 PM 32.0 °F 28.7 °F 32.0 °F 100% 29.74 in 4.0 mi West 3.5 mph - 0.01 in   Mostly Cloudy
6:35 PM 32.0 °F - 32.0 °F 100% 29.74 in 7.0 mi Calm Calm - 0.01 in   Overcast
6:55 PM 33.8 °F - 32.0 °F 93% 29.73 in 9.0 mi Calm Calm - 0.01 in   Overcast
7:10 PM 33.8 °F - 32.0 °F 93% 29.72 in 10.0 mi Calm Calm - N/A   Overcast
7:35 PM 33.8 °F - 32.0 °F 93% 29.72 in 9.0 mi Calm Calm - N/A   Overcast
7:55 PM 33.8 °F - 32.0 °F 93% 29.73 in 5.0 mi Calm Calm - N/A   Overcast
8:15 PM 33.8 °F - 32.0 °F 93% 29.74 in 7.0 mi Calm Calm - N/A   Overcast
8:35 PM 33.8 °F - 33.8 °F 100% 29.75 in 3.0 mi Calm Calm - N/A   Overcast
8:55 PM 33.8 °F - 33.8 °F 100% 29.76 in 4.0 mi Calm Calm - N/A   Overcast
9:15 PM 33.8 °F - 33.8 °F 100% 29.76 in 5.0 mi Calm Calm - N/A   Overcast
9:35 PM 33.8 °F - 33.8 °F 100% 29.77 in 10.0 mi Calm Calm - N/A   Overcast
9:55 PM 33.8 °F - 33.8 °F 100% 29.78 in 5.0 mi Calm Calm - N/A   Overcast
10:15 PM 33.8 °F - 33.8 °F 100% 29.78 in 5.0 mi Calm Calm - N/A   Overcast
10:35 PM 35.6 °F - 33.8 °F 93% 29.78 in 5.0 mi Calm Calm - N/A   Overcast
10:50 PM 35.6 °F - 33.8 °F 93% 29.79 in 9.0 mi Calm Calm - N/A   Overcast
11:15 PM 35.6 °F 32.8 °F 33.8 °F 93% 29.79 in 10.0 mi West 3.5 mph - N/A   Overcast
11:35 PM 35.6 °F - 33.8 °F 93% 29.80 in 10.0 mi Calm Calm - N/A   Overcast
11:55 PM 35.6 °F - 33.8 °F 93% 29.80 in 8.0 mi Calm Calm - N/A   Overcast